Wind_Speed
13 13 13 13 14 13 11 10 10 11 11 13 14 14 16 15 15 16 17 16 15 16 15 17 18 17 16 16 16 17 18 17 14 15 17 16 17 18 19 19 19 19 19 19 18 19 19 18 17 17 17 16 15 14 14 15 16 17 18 19 18 18 17 17 17 16 16 16 17 17 17 17 18 17 17 17 16 15 15 14 13 13 12 12 12
13 12 12 12 13 12 10 9 9 10 10 11 13 13 14 15 14 14 15 14 13 14 14 16 18 16 14 15 16 16 16 16 14 15 16 16 17 17 17 18 19 20 20 20 19 19 19 19 19 18 18 18 17 15 15 15 15 16 17 18 19 20 19 19 18 17 17 17 17 17 17 17 18 18 18 18 18 17 17 16 16 15 15 14 14
11 10 10 9 10 10 8 9 9 10 10 10 11 12 13 13 12 12 14 13 12 13 14 15 16 15 14 15 16 14 13 14 15 15 15 16 16 16 18 18 19 20 21 21 21 19 19 19 19 19 18 18 18 17 16 16 15 15 16 17 18 20 21 20 20 19 19 18 18 18 17 18 18 18 19 19 19 19 18 18 18 17 17 17 16
10 10 9 8 7 8 8 9 9 10 11 10 9 11 11 10 10 12 13 14 12 12 12 13 14 14 15 15 16 13 11 13 14 14 14 15 16 17 18 18 19 20 21 22 22 21 20 19 20 19 19 18 18 18 18 18 17 17 17 17 17 18 19 20 21 21 21 20 20 19 19 19 19 19 19 20 20 20 20 19 19 19 19 18 18
9 8 8 7 6 7 8 9 9 10 10 9 8 9 10 9 9 11 12 12 11 11 12 12 14 14 12 12 12 12 12 12 13 14 14 15 16 17 18 19 20 21 21 22 22 22 21 21 21 21 20 19 19 19 19 19 19 18 18 18 17 17 18 18 19 20 21 22 22 21 21 21 21 21 20 21 21 21 21 21 20 20 20 20 20
8 8 8 8 9 10 10 9 9 9 8 7 8 8 9 9 9 10 9 10 10 11 11 11 12 11 8 8 9 10 11 12 14 13 13 15 16 16 17 19 20 21 22 22 22 22 22 22 22 22 21 21 20 20 19 19 19 19 19 18 18 18 18 18 19 19 21 22 23 23 23 23 22 22 22 22 21 22 22 22 22 21 21 21 21
9 10 11 11 11 11 11 10 9 8 7 7 7 7 8 8 8 8 8 8 9 10 10 9 9 7 7 8 8 9 11 13 15 14 12 13 14 14 14 16 17 18 20 21 22 23 23 23 23 23 23 22 22 21 21 20 20 19 19 19 19 19 19 19 19 19 20 21 22 23 24 25 25 24 24 23 22 22 22 22 22 22 22 22 22
12 13 13 13 11 10 10 9 9 8 7 7 6 6 7 7 7 7 7 7 8 9 8 7 5 6 7 7 6 9 11 12 14 14 11 12 14 13 12 13 13 14 16 19 22 23 23 23 24 24 24 24 24 24 23 22 21 21 21 20 20 20 20 20 20 20 21 21 22 22 24 25 26 26 26 25 25 24 24 23 23 23 23 23 23
15 15 15 14 11 9 9 8 8 8 7 6 6 6 7 6 6 6 6 6 7 8 8 6 4 5 6 5 4 5 8 9 10 11 11 11 12 12 12 13 13 14 15 16 17 19 22 23 24 25 25 26 26 25 25 24 23 22 22 22 22 21 21 21 21 22 22 22 23 23 23 24 25 27 28 27 27 26 26 25 25 25 25 25 25
14 14 14 13 11 9 9 9 9 8 7 6 5 6 6 6 6 5 5 5 6 7 8 7 6 6 6 5 4 4 6 7 8 10 10 11 12 12 13 13 12 14 14 14 14 15 18 20 20 22 24 26 27 26 25 24 24 24 24 24 24 23 23 23 23 23 23 23 23 23 24 24 25 26 27 28 29 28 28 28 27 27 27 27 27
12 10 10 10 10 10 10 10 10 9 7 6 6 6 7 7 6 5 5 6 7 7 7 8 8 8 7 5 5 5 6 6 8 10 10 13 14 12 12 12 11 12 13 13 13 12 13 15 16 18 20 23 24 25 24 23 24 24 24 24 24 24 24 24 24 24 24 24 24 24 24 25 25 25 26 27 28 29 30 30 30 29 29 28 28
10 8 8 9 10 11 11 11 10 9 7 7 7 7 7 7 7 6 6 6 7 7 8 8 9 8 8 7 6 6 6 7 9 11 11 13 15 12 10 11 11 11 12 12 12 11 10 12 15 17 17 18 18 19 20 21 22 23 23 23 23 23 24 24 25 25 25 25 26 26 26 26 26 26 27 27 28 29 29 30 31 31 31 31 30
9 8 9 10 11 11 11 10 10 9 8 7 8 7 7 7 7 7 7 7 7 8 8 9 9 9 8 8 7 6 7 8 9 10 12 13 15 14 11 11 11 11 11 12 14 13 11 11 13 14 13 13 12 13 16 17 18 19 20 20 21 22 23 24 26 26 26 26 26 27 27 27 27 28 28 28 29 29 29 30 30 31 32 32 32
11 10 11 11 10 10 10 10 10 9 7 7 7 7 7 8 8 8 8 8 8 8 8 8 9 9 9 9 9 8 8 8 9 10 11 12 15 16 13 10 11 11 12 13 13 12 11 10 10 10 10 9 9 11 13 13 13 14 14 15 17 18 20 22 24 25 26 27 27 28 28 28 29 29 29 29 29 29 30 30 31 31 31 32 32
13 13 12 11 11 10 10 10 10 9 8 7 7 7 7 8 8 9 9 9 9 9 8 9 9 10 10 10 9 9 8 9 10 10 11 13 14 16 15 12 11 13 13 15 15 13 12 10 8 8 9 8 9 11 10 10 10 10 11 12 13 15 16 17 19 21 24 25 26 28 29 30 30 30 29 29 28 28 29 30 31 32 32 32 32
15 14 14 13 12 11 10 9 9 8 8 8 8 8 8 8 8 9 9 10 10 9 9 9 10 10 10 10 10 9 9 10 11 10 12 13 13 15 17 16 16 16 15 16 17 16 15 14 11 11 12 10 10 11 10 9 9 10 10 11 12 13 14 16 17 19 20 22 24 26 28 29 30 31 31 30 30 29 29 29 30 31 31 32 32
15 15 15 14 13 12 11 10 8 8 8 8 8 9 8 8 8 9 9 9 10 10 10 10 10 10 10 10 10 10 10 11 11 11 11 12 12 14 16 17 17 17 16 16 17 16 16 15 14 13 13 13 12 12 12 11 10 11 11 11 12 14 15 16 17 18 19 20 21 24 27 28 29 30 31 32 32 31 30 30 30 30 30 30 31
17 16 15 14 14 13 12 11 9 9 8 8 9 9 9 9 9 9 9 9 10 11 11 10 10 10 10 10 10 10 11 10 10 11 12 13 13 14 16 17 17 17 17 17 16 15 15 16 16 16 15 14 15 15 14 13 13 13 13 13 14 15 15 16 16 17 18 18 19 21 24 26 27 29 30 31 31 32 32 32 32 31 30 30 30
18 17 16 15 14 12 11 10 10 10 9 9 9 9 9 9 10 10 10 10 10 11 11 11 11 10 10 10 10 11 11 11 11 12 13 14 15 16 16 17 18 18 18 18 16 15 15 16 17 18 17 17 17 18 17 17 16 16 16 16 16 16 17 17 16 16 17 17 18 20 20 21 25 29 31 30 31 31 32 32 32 32 32 31 31
18 17 16 15 13 12 11 10 10 10 10 9 9 9 9 9 10 10 11 11 11 11 11 11 11 11 11 11 11 11 12 12 13 13 14 15 16 17 17 17 18 18 17 17 16 15 15 17 17 18 18 18 19 20 20 20 18 18 18 18 18 18 18 18 18 18 18 18 19 19 20 20 21 24 27 28 30 31 31 31 31 32 33 34 33
19 18 16 14 13 11 11 10 10 10 10 10 10 10 10 10 11 11 12 13 12 12 12 12 12 12 11 11 11 11 12 13 14 14 15 15 16 17 16 16 16 16 16 17 17 17 16 17 17 17 17 17 18 20 20 19 18 17 17 17 18 18 19 19 19 19 19 19 19 19 20 20 20 21 22 25 27 28 29 29 29 31 32 33 33
19 18 15 14 13 12 11 11 11 11 11 11 12 12 12 12 12 13 13 14 14 14 14 13 13 13 12 12 11 11 12 13 14 15 15 15 16 16 15 15 16 16 17 18 18 17 17 17 17 17 16 16 16 15 14 15 16 17 17 17 17 18 19 19 20 20 20 21 21 21 20 20 20 21 22 23 24 25 26 27 28 30 32 32 32
19 17 14 13 13 12 12 12 12 12 12 13 12 12 12 12 13 13 14 15 16 16 16 16 15 15 14 14 13 13 13 14 15 15 16 16 16 16 15 15 17 18 18 19 18 18 18 17 17 17 17 15 14 14 15 18 19 19 19 18 18 18 19 20 20 21 21 21 22 22 22 22 21 21 21 22 23 24 24 26 28 29 30 31 32
18 17 14 13 13 12 12 11 11 11 11 11 11 11 12 13 14 14 15 16 17 17 18 18 18 17 17 16 15 15 14 15 16 16 17 17 16 16 16 17 18 18 19 20 19 19 19 18 18 18 17 17 16 18 20 21 20 20 20 20 19 20 20 20 20 20 21 21 22 22 23 23 23 22 22 22 23 24 24 25 26 27 28 28 29
18 17 15 14 13 13 12 11 11 11 11 12 12 13 14 15 15 15 15 16 16 17 17 18 19 19 19 18 18 17 16 16 17 17 17 17 17 17 17 17 17 18 19 20 20 20 19 19 19 19 19 18 18 19 20 20 20 20 20 20 20 20 20 21 21 21 21 21 21 21 22 23 23 24 24 24 24 25 25 25 25 26 28 29 29
18 18 17 15 14 14 13 13 13 12 13 14 15 15 15 15 15 15 15 15 15 16 17 18 19 19 19 19 19 18 18 17 17 18 18 17 18 18 17 16 16 18 19 19 20 20 20 20 19 19 19 19 20 20 20 20 20 19 19 19 19 19 19 20 21 21 21 21 21 21 21 21 22 23 23 24 24 25 25 25 25 25 27 28 29
18 19 19 17 15 15 15 14 14 14 14 15 16 16 15 15 14 14 14 15 15 16 17 18 18 19 19 19 19 19 19 18 18 18 18 18 18 18 17 16 15 16 17 18 18 19 19 20 19 19 19 20 20 20 20 19 19 19 19 18 18 18 18 18 20 21 21 21 20 20 20 20 20 21 21 22 23 23 24 24 24 25 25 26 26
19 20 20 19 17 16 16 16 16 16 16 17 17 17 17 16 15 15 15 15 15 16 17 18 18 19 19 19 19 19 19 19 18 17 17 17 18 18 17 16 15 15 15 16 16 17 17 18 18 18 18 19 19 19 19 18 18 18 17 17 16 16 16 16 17 18 19 19 19 18 18 18 19 19 19 20 21 21 22 23 23 23 23 23 24
20 21 21 20 19 18 18 18 18 18 18 18 18 18 18 18 17 16 16 16 17 17 17 18 18 19 19 19 18 18 18 18 18 18 17 17 17 18 17 16 16 15 15 15 15 15 15 16 16 17 17 17 17 17 17 17 16 16 16 16 16 15 15 15 16 16 17 17 17 16 16 16 17 17 17 18 19 19 20 20 21 21 21 21 21
21 22 21 21 20 20 19 19 19 19 19 19 19 19 19 19 18 18 18 18 18 18 18 18 18 18 18 18 18 18 17 17 17 17 17 17 17 17 17 16 15 15 16 16 16 15 15 15 15 15 15 15 15 15 15 16 15 15 15 15 15 15 15 15 15 15 16 16 16 16 15 15 15 16 16 16 17 17 18 18 18 18 18 18 19
23 23 22 22 22 21 20 21 21 20 20 20 19 20 20 19 19 19 19 19 18 18 18 18 17 18 18 18 18 18 17 17 17 16 17 17 17 18 18 17 16 15 15 16 16 15 15 16 16 16 15 15 15 15 15 15 15 15 15 15 15 15 15 15 16 16 16 16 16 16 16 15 15 15 16 16 16 16 17 17 17 17 17 17 18
24 25 24 24 23 23 23 22 22 21 20 20 20 20 20 20 20 19 19 19 19 18 18 18 17 17 18 18 18 18 18 18 17 17 17 17 17 18 18 18 18 17 17 17 17 16 16 16 16 16 16 16 16 16 16 16 16 16 16 15 15 15 16 16 16 16 16 17 17 17 16 16 16 16 16 17 17 17 17 18 18 18 18 18 18
26 26 26 24 23 23 23 22 21 21 21 21 21 21 21 20 20 19 19 19 19 19 18 18 18 17 18 18 18 18 18 18 18 18 17 17 17 17 17 18 18 18 18 18 18 18 17 17 17 17 16 16 17 17 17 17 17 17 17 17 16 16 17 17 18 18 18 18 18 18 18 18 18 18 18 18 18 19 19 20 20 20 20 21 21
26 26 26 24 23 22 21 21 21 21 21 21 21 21 21 21 20 20 20 19 19 18 18 18 17 17 17 17 17 18 18 18 18 18 18 17 17 17 17 17 17 17 18 18 18 19 19 18 18 18 18 18 18 18 18 18 18 18 18 18 18 18 18 18 19 21 21 21 20 20 20 21 21 21 21 21 21 21 21 22 22 23 23 24 24
27 26 26 24 23 22 22 22 21 21 21 21 21 22 22 22 22 21 20 19 18 18 17 17 16 16 15 15 15 16 16 17 17 18 18 17 17 17 16 17 17 18 18 18 19 19 20 20 19 19 20 19 19 19 20 20 20 19 19 19 20 20 20 20 21 22 23 24 24 23 23 23 23 23 24 24 24 24 24 24 24 25 25 26 27
28 28 27 26 26 25 24 23 22 21 22 21 22 22 22 22 22 22 21 20 19 18 17 16 15 15 15 15 16 16 17 18 18 18 18 18 18 18 17 18 18 19 19 19 20 20 21 22 21 21 21 21 21 21 21 21 22 22 22 21 22 23 23 23 24 24 24 26 27 27 26 26 26 26 26 26 26 27 27 27 27 27 27 28 28
30 30 28 27 27 26 26 24 22 22 22 23 23 23 23 22 22 22 21 21 21 21 19 18 18 18 18 18 18 19 19 19 19 20 21 20 20 20 20 20 20 21 21 22 22 23 23 23 23 23 22 23 23 23 23 23 24 24 24 24 24 25 25 26 27 27 27 28 29 30 30 29 28 28 29 29 28 28 29 29 29 29 29 29 30
31 30 29 28 27 27 26 24 23 23 24 25 24 24 23 23 23 23 22 21 22 22 21 20 20 20 21 21 21 21 20 20 20 21 22 22 23 23 22 22 22 23 23 23 24 24 24 25 25 25 24 24 25 25 25 25 25 26 27 26 26 27 28 28 29 29 29 29 29 31 32 32 31 31 31 32 32 31 31 32 32 32 32 33 33
30 29 29 28 28 28 26 25 24 24 25 26 25 24 25 25 24 24 23 23 24 24 24 22 21 20 19 19 21 22 22 21 20 20 21 21 22 23 23 22 22 23 23 24 24 25 26 26 27 27 27 27 27 28 28 28 28 29 29 29 30 30 30 31 31 31 32 32 31 31 32 33 33 33 33 34 34 35 34 35 35 35 35 35 36
29 30 29 28 28 27 26 26 25 24 25 25 26 27 26 25 24 24 25 25 25 26 25 23 23 21 18 17 18 20 22 21 20 20 21 22 22 23 23 23 24 24 25 26 26 27 27 28 29 29 30 30 30 30 31 31 31 31 30 31 31 32 33 34 34 34 34 35 35 35 35 35 35 36 36 37 37 37 37 37 38 38 38 38 38
28 28 28 27 27 27 28 28 26 26 24 22 24 28 28 27 26 25 26 27 27 27 26 25 25 25 24 23 21 18 18 19 20 21 22 23 23 24 25 26 26 27 28 28 29 29 30 31 32 33 34 34 35 34 34 35 34 35 35 36 37 37 37 38 38 39 39 39 39 39 39 39 39 39 40 40 41 41 41 41 42 43 43 43 43
25 27 27 27 27 28 29 29 28 27 25 22 25 28 29 30 29 26 27 28 28 28 28 28 28 27 27 27 24 20 18 19 20 21 22 23 24 25 27 28 29 30 30 31 32 32 33 33 34 35 36 37 38 38 38 39 39 40 41 41 42 42 42 42 42 43 44 43 42 42 43 43 43 43 44 45 45 45 45 45 46 47 48 49 49
23 25 26 26 27 27 28 29 29 27 25 25 27 28 27 28 29 29 30 31 31 30 30 30 29 27 25 24 24 24 24 23 22 23 25 26 27 28 29 30 31 32 32 33 34 34 35 35 36 37 38 39 39 40 41 42 43 44 44 44 45 45 45 45 44 44 45 45 45 44 45 47 47 47 48 49 49 49 49 49 50 51 51 52 53
24 24 25 25 26 28 29 30 31 30 28 28 30 31 29 27 27 29 30 32 32 31 30 31 30 29 28 28 29 31 30 29 29 30 31 31 32 32 33 33 34 34 34 35 35 36 37 37 38 39 40 41 41 42 43 44 45 46 47 47 47 47 47 47 46 46 46 47 46 45 46 47 48 48 49 50 50 51 51 51 51 52 52 52 53
26 26 26 26 26 28 29 31 33 33 33 32 34 35 34 31 29 30 31 32 32 32 32 32 32 33 34 34 34 34 35 35 35 35 35 36 36 36 36 36 37 37 37 37 38 38 39 40 41 42 43 44 44 45 45 45 46 47 48 49 49 50 50 49 49 49 49 49 49 48 47 47 48 49 49 50 51 52 52 52 53 53 52 52 52
29 29 29 29 28 29 30 32 34 36 36 35 35 35 35 35 34 33 33 33 33 33 34 34 36 37 38 37 36 36 38 38 38 39 40 40 40 41 41 41 41 40 40 40 41 42 42 43 43 43 44 45 46 46 47 47 47 48 49 49 50 50 50 50 50 50 50 51 51 50 48 49 50 50 50 51 52 52 53 53 54 54 54 54 54
33 33 32 31 31 32 33 35 36 38 38 38 37 35 34 34 34 33 33 34 35 36 37 38 40 40 41 40 39 40 42 42 42 43 44 44 44 45 46 46 45 45 44 44 44 44 44 44 44 44 44 45 46 46 47 48 48 48 49 49 49 49 49 49 50 50 51 51 51 50 49 50 51 51 51 52 53 53 53 54 54 55 55 55 55
37 36 35 34 34 35 37 38 39 41 41 41 40 39 38 39 38 38 37 37 38 39 40 42 44 44 44 43 43 45 47 47 46 46 46 46 46 46 47 47 47 46 46 46 45 44 44 43 43 44 44 45 46 47 48 48 48 48 49 49 49 50 50 50 50 50 51 51 51 51 50 50 51 51 51 52 53 53 53 53 54 54 55 55 55
40 40 39 39 38 38 39 40 42 43 44 44 44 43 42 43 43 43 43 42 41 42 42 44 45 46 46 46 48 50 50 49 49 49 48 47 47 47 47 46 46 46 45 44 43 42 42 42 43 44 45 46 47 48 49 49 50 50 50 50 51 52 52 52 51 51 52 52 51 51 52 51 52 52 52 52 52 53 53 53 53 54 54 54 54
43 43 44 44 43 41 42 43 44 44 45 46 46 46 46 46 46 46 46 45 45 45 44 45 47 48 49 50 51 51 50 50 49 49 49 48 48 47 47 47 47 46 43 41 40 40 41 42 43 45 46 47 48 49 50 50 50 51 51 51 52 52 52 52 52 52 52 52 52 51 52 52 52 52 52 51 51 51 51 51 51 51 52 52 52
44 45 45 45 45 44 44 44 45 46 46 47 48 48 48 47 46 46 45 44 45 45 44 44 46 48 49 49 49 48 48 48 48 48 48 47 47 47 46 47 47 45 41 39 39 40 42 44 46 47 48 49 50 50 51 51 51 51 51 51 52 52 52 52 52 52 52 52 51 50 51 50 50 51 51 51 50 49 49 49 49 49 49 49 49
Wind_Direction
238 251 261 260 257 258 260 263 264 264 267 271 276 275 271 270 265 261 260 261 272 273 266 271 270 262 263 265 264 263 264 268 265 256 255 253 249 249 249 250 252 253 252 250 249 251 252 250 249 250 250 248 244 240 238 237 236 236 236 237 237 236 233 232 230 230 230 230 231 231 233 234 235 237 239 243 246 248 248 247 246 242 239 237 234
256 259 262 262 259 256 254 257 259 261 266 272 277 276 274 272 266 259 255 262 277 272 269 278 278 272 264 260 261 260 264 269 264 258 256 254 252 252 252 252 252 253 253 252 249 250 253 253 251 251 252 252 251 248 245 243 241 240 239 239 239 239 238 236 234 232 232 232 233 232 233 234 235 236 238 240 242 245 246 246 247 245 243 241 238
269 263 260 260 259 254 250 256 262 268 273 273 273 277 282 280 271 268 268 273 280 278 278 277 277 278 267 255 252 253 264 270 267 264 262 259 258 258 257 256 254 254 255 255 253 252 253 255 256 254 253 253 253 251 249 247 244 242 240 240 240 241 241 241 239 237 236 235 235 235 235 235 235 236 238 239 240 242 244 245 245 245 245 244 242
277 266 258 261 263 261 261 269 278 282 286 286 283 286 290 289 275 271 276 279 281 280 279 274 272 273 264 250 244 249 256 259 268 270 265 265 265 264 262 260 259 257 257 258 258 257 256 256 257 257 255 254 253 252 250 248 246 244 242 241 241 242 244 244 244 243 242 240 239 239 238 238 237 237 238 239 240 241 242 243 244 245 246 246 246
277 267 262 270 281 278 272 278 288 286 290 292 286 287 287 285 277 278 285 284 280 275 272 271 274 272 261 247 246 251 243 247 271 276 268 268 267 266 265 262 261 259 259 259 260 261 260 259 257 257 256 255 253 252 251 250 249 248 247 246 245 245 246 247 247 246 245 244 243 242 241 241 240 240 239 239 240 241 242 243 244 245 246 247 248
287 283 279 286 293 292 287 284 284 280 278 275 270 277 282 285 288 294 296 285 279 276 272 273 279 278 262 255 259 253 244 255 269 272 275 277 271 270 269 265 261 259 257 256 256 258 258 258 257 256 256 255 254 253 252 253 253 252 251 251 250 249 249 248 248 247 246 245 244 243 243 242 243 242 242 241 240 240 241 242 243 244 245 247 248
289 291 291 294 293 292 293 288 283 279 276 275 280 288 293 300 304 301 294 284 282 278 279 285 283 274 254 254 265 258 259 266 262 261 277 281 276 276 275 273 272 266 261 256 253 253 254 255 256 256 255 253 253 253 252 252 253 254 254 253 253 252 252 251 250 249 248 247 246 245 244 243 243 243 243 244 243 242 242 242 243 244 245 246 247
284 288 290 293 292 289 291 288 284 284 287 294 304 308 308 313 310 301 293 286 285 283 290 297 282 263 244 236 250 260 267 271 262 264 280 283 279 283 284 285 286 277 267 261 254 251 250 251 252 254 255 254 252 251 251 251 251 252 253 253 253 253 252 252 252 251 250 249 248 248 246 245 244 244 244 244 244 245 245 244 244 245 247 248 248
288 290 291 295 295 293 292 289 286 286 290 300 307 306 306 310 309 301 297 291 286 285 291 293 280 278 261 243 255 268 275 282 273 272 286 288 280 283 287 287 286 279 271 263 256 252 249 248 250 253 256 258 255 250 248 249 249 250 251 251 251 250 249 249 249 250 250 250 249 248 248 247 247 246 246 246 246 246 247 247 246 246 248 249 250
288 289 293 296 296 293 289 287 284 283 287 289 288 291 293 298 301 298 292 286 280 278 283 285 288 298 294 288 297 289 287 295 286 281 289 286 278 280 285 286 287 286 281 273 271 267 256 251 254 256 257 258 255 251 248 249 250 250 249 248 249 248 247 247 246 246 248 249 250 250 249 249 249 248 248 248 248 248 248 249 249 249 249 250 250
279 279 283 284 284 280 277 278 277 277 281 280 276 280 285 288 291 291 285 281 278 275 279 281 286 292 288 284 286 285 290 294 288 289 290 281 280 285 286 287 292 292 291 284 282 279 263 254 256 257 256 255 253 252 251 251 251 250 249 248 248 249 250 249 248 247 246 247 249 250 250 249 249 249 249 249 249 249 249 249 250 250 251 251 252
268 266 268 271 276 276 273 273 273 273 271 269 266 266 272 278 280 280 279 278 278 277 276 276 276 276 272 270 270 271 280 287 286 289 289 284 287 293 287 289 300 300 297 290 284 280 271 263 259 258 257 253 253 255 255 254 253 252 252 251 251 252 253 253 252 251 249 247 247 247 248 249 249 249 249 248 248 249 250 250 250 250 251 252 253
270 269 272 273 276 278 277 276 274 269 262 259 260 260 261 264 266 269 271 268 267 270 273 273 272 273 274 273 272 268 270 278 282 285 290 291 292 294 289 292 300 298 292 290 288 278 270 273 272 272 271 267 268 267 261 259 258 257 257 257 258 258 258 257 256 254 252 249 248 247 247 247 248 248 248 248 247 248 249 249 250 251 251 252 254
274 273 272 272 273 275 277 278 276 270 263 258 258 259 260 260 260 262 262 262 262 264 266 269 273 277 277 275 277 277 273 278 284 284 289 293 292 294 295 296 295 292 286 286 289 281 277 284 281 280 287 287 283 276 271 270 270 266 264 262 263 265 265 263 260 257 255 252 250 248 248 248 248 248 249 249 248 247 248 249 251 252 253 254 255
272 271 270 270 272 272 270 272 275 276 276 271 267 262 258 259 260 260 261 261 262 261 259 261 266 269 271 273 279 280 277 278 279 279 284 289 290 292 295 300 300 298 292 287 291 292 293 299 292 290 301 299 291 288 289 291 285 277 271 269 269 270 269 267 264 261 259 257 254 250 248 249 250 250 251 251 251 250 249 250 251 253 254 254 255
272 274 274 275 275 273 270 269 271 277 281 281 280 274 266 262 260 260 262 263 264 264 261 258 259 261 264 268 270 272 273 273 272 275 280 284 287 288 291 299 301 296 291 289 293 296 296 297 296 298 303 300 296 298 301 300 293 288 284 281 280 279 276 273 271 268 265 263 259 255 252 250 251 252 252 252 252 252 252 252 252 253 254 255 255
276 277 277 276 274 274 274 274 274 276 278 280 280 279 276 272 268 266 265 266 268 267 266 266 266 265 266 267 266 267 270 273 276 278 278 282 286 287 290 294 294 292 290 290 292 296 298 297 297 298 297 297 297 299 303 303 300 300 297 293 289 286 284 283 280 277 274 269 264 261 258 256 255 253 253 252 253 253 252 251 252 254 255 255 256
280 280 279 276 273 273 276 281 282 281 281 281 281 280 280 278 278 276 274 272 272 272 272 274 274 272 272 274 275 277 279 281 283 285 284 286 286 284 286 287 287 291 293 292 291 294 295 294 295 294 294 294 296 298 300 301 301 300 296 293 292 291 291 291 288 284 282 277 271 269 268 264 260 257 255 254 254 254 253 252 253 254 255 255 256
281 279 278 275 272 272 274 280 285 285 285 284 284 286 285 283 281 280 279 277 275 276 276 276 278 279 281 284 288 289 290 291 290 289 287 287 286 284 284 287 288 289 291 290 290 291 292 291 292 292 294 294 296 297 296 294 294 292 290 289 288 289 289 289 287 285 283 282 279 279 279 274 265 259 257 256 256 256 256 256 256 257 257 256 256
281 278 275 273 271 271 273 276 279 281 283 284 285 287 288 288 286 284 282 280 279 279 280 281 282 284 287 290 292 292 294 296 294 290 287 285 285 285 286 286 286 286 289 289 289 291 290 290 291 293 295 295 295 294 291 289 286 284 284 284 283 283 283 283 282 281 280 280 281 282 283 281 275 266 260 258 258 258 258 258 259 260 260 260 260
279 276 273 271 270 270 270 272 273 276 279 282 284 286 290 293 292 291 288 285 284 282 283 284 283 285 287 289 290 290 291 292 292 290 289 286 284 284 284 282 279 282 287 288 289 290 288 287 289 291 294 296 297 293 289 287 286 284 283 281 280 281 281 280 278 277 276 276 278 280 281 281 280 275 267 261 260 261 261 261 262 261 261 262 263
274 271 266 265 267 267 267 269 270 272 274 277 280 284 289 292 292 293 292 290 289 288 287 286 286 287 286 286 286 286 285 286 287 287 286 286 285 284 283 280 280 283 285 285 286 287 286 285 285 286 288 291 294 291 287 290 292 291 289 285 282 280 280 280 279 277 276 275 276 277 278 278 277 276 272 267 265 265 265 265 265 265 265 264 264
269 263 256 257 262 264 267 269 270 271 272 273 276 281 286 291 294 295 295 294 293 292 291 289 289 288 287 286 285 283 282 281 282 284 285 286 286 285 284 284 285 285 284 283 284 285 285 284 283 282 281 280 279 275 280 289 293 292 290 287 283 280 279 278 278 278 277 277 277 277 277 277 277 276 275 272 269 269 269 270 269 269 269 267 265
264 255 246 251 258 260 265 268 270 272 273 274 276 279 282 286 291 293 295 296 295 293 292 290 289 287 286 285 284 282 281 279 279 281 284 286 287 285 285 285 285 285 285 284 283 283 282 281 281 280 278 276 272 270 276 283 286 287 287 286 284 282 280 279 278 278 277 277 278 278 277 277 276 276 275 273 271 270 272 273 272 270 270 271 270
260 246 236 243 252 255 261 267 271 274 275 277 277 279 281 284 286 289 290 292 293 293 292 291 289 288 286 284 282 280 277 277 278 280 282 285 286 284 281 282 283 283 283 282 282 282 280 280 280 280 280 279 277 277 279 282 284 285 286 286 285 283 282 282 281 280 280 279 278 277 276 275 275 274 273 273 271 271 272 274 275 273 272 273 274
257 242 232 238 247 253 260 265 269 273 276 278 279 280 282 285 287 289 289 290 292 292 292 291 289 287 285 283 281 279 277 276 275 277 279 280 281 283 282 283 282 281 281 281 282 282 281 282 281 282 283 284 285 286 287 288 288 289 289 288 287 285 284 283 283 283 283 282 281 280 278 276 275 274 273 272 272 272 272 274 276 276 276 275 276
253 240 233 236 244 252 258 262 265 270 274 277 279 280 282 284 286 289 291 292 292 293 293 292 291 288 286 284 282 280 279 277 275 274 275 276 278 281 284 286 284 283 284 283 283 283 284 285 286 286 287 287 288 289 290 291 292 292 292 292 291 289 287 285 284 285 285 286 285 284 282 280 278 277 275 274 273 273 273 274 275 276 277 277 277
250 241 236 237 243 250 256 259 261 264 270 276 278 280 281 282 284 287 290 292 293 294 294 293 292 289 287 285 284 282 281 279 277 275 273 274 276 279 282 286 287 287 287 287 288 288 288 289 289 290 290 290 291 291 292 293 292 293 292 292 292 291 290 288 287 287 288 290 290 289 288 286 284 281 279 277 276 275 275 275 275 275 276 276 276
250 244 240 240 244 250 254 257 258 261 270 278 280 282 284 285 287 289 291 293 294 295 295 293 291 288 286 284 282 281 281 281 281 279 277 275 275 277 281 284 288 291 291 291 292 293 292 292 292 291 291 291 292 292 293 293 292 292 292 293 294 294 294 294 292 292 293 294 295 295 293 291 290 287 284 281 279 278 278 278 278 278 278 279 278
251 248 246 245 246 250 254 256 257 263 273 280 282 284 286 287 289 290 291 292 293 293 294 293 291 289 286 284 281 279 278 278 279 280 280 280 279 280 282 283 284 287 290 292 293 293 292 291 290 290 289 289 289 290 291 292 293 294 295 297 299 301 301 300 299 298 297 297 297 298 298 296 293 291 289 286 283 282 282 282 283 283 282 281 280
250 250 250 249 249 250 254 256 258 265 274 280 282 283 285 287 288 290 291 292 292 292 292 292 291 289 285 282 280 279 277 277 278 279 281 282 283 283 284 284 282 281 281 283 285 286 286 286 287 287 288 289 289 289 289 291 293 295 297 300 302 303 303 302 300 299 297 297 297 297 298 297 295 293 291 290 287 285 284 283 283 284 283 281 280
251 253 253 253 253 252 253 256 259 267 274 278 281 282 283 285 286 288 289 290 290 290 290 289 289 288 287 285 283 282 281 280 279 279 280 281 282 284 285 286 285 284 282 279 279 280 281 282 284 286 288 289 289 290 291 291 292 294 295 297 299 300 299 298 297 295 295 295 295 295 295 294 293 291 290 289 288 286 285 284 282 282 281 281 279
253 256 256 256 256 254 253 255 261 269 275 278 280 281 282 284 284 285 284 284 285 285 286 286 286 286 287 287 287 286 286 285 283 281 280 280 280 281 283 284 286 286 286 285 284 283 283 283 284 285 285 285 286 288 289 290 291 293 294 294 295 296 296 297 296 295 294 292 292 292 292 292 291 289 287 285 284 283 283 282 281 281 280 279 279
253 256 257 257 256 253 252 257 264 270 274 277 279 281 281 282 281 280 279 277 277 279 281 282 281 281 283 284 284 286 286 285 284 283 281 279 279 279 280 282 284 285 286 286 286 287 287 287 287 286 285 285 286 287 287 288 288 289 290 292 293 294 294 294 295 296 295 294 292 290 289 289 288 288 287 285 283 282 281 280 279 279 278 278 278
252 253 253 253 253 254 256 261 266 269 272 274 276 278 279 279 278 277 275 274 273 275 276 278 277 276 277 277 278 279 280 280 279 278 277 277 277 278 279 280 282 283 284 285 286 287 288 288 288 287 286 286 286 285 286 286 286 286 287 289 290 291 292 292 291 292 292 293 293 291 289 287 286 286 285 285 284 283 282 280 279 278 277 277 277
250 250 250 249 251 254 259 263 265 268 271 272 273 274 274 274 274 273 272 271 270 270 271 273 275 274 272 271 272 274 275 275 274 273 271 271 272 273 275 277 280 282 285 287 288 288 288 289 289 287 288 288 287 285 284 284 284 284 285 287 289 290 291 291 290 290 289 289 289 289 288 287 286 285 284 284 283 283 283 282 281 279 278 277 276
251 250 251 253 254 256 260 262 265 268 271 271 272 273 272 271 272 272 272 273 273 272 270 269 269 269 267 265 266 268 269 270 271 270 270 269 270 272 274 276 279 281 284 286 287 288 288 288 288 288 287 287 286 286 285 285 284 285 286 287 288 290 290 290 289 289 288 287 286 287 286 285 285 285 284 284 283 282 283 283 282 282 281 279 277
252 252 254 256 255 256 259 261 265 269 271 272 273 274 272 269 269 271 272 271 271 271 270 270 271 269 266 264 263 264 264 266 267 268 269 271 272 274 275 277 279 282 284 286 287 288 288 287 287 286 285 285 284 284 284 284 285 286 287 288 288 288 289 289 289 288 287 286 284 284 284 285 284 284 285 285 285 284 283 282 282 282 281 281 280
250 252 254 255 255 257 261 265 268 271 272 273 274 274 272 269 267 268 269 266 265 268 269 271 273 273 268 263 263 265 265 266 267 268 270 272 273 274 276 278 280 282 284 286 287 288 288 287 286 285 285 284 283 284 284 284 283 283 283 284 285 286 287 287 287 287 287 286 284 281 280 281 281 281 282 282 283 283 283 282 281 280 279 279 279
251 253 255 256 258 261 264 266 267 269 273 277 277 273 268 266 267 269 268 263 262 266 268 268 269 269 265 260 261 264 264 265 268 270 273 274 275 276 278 280 282 283 284 285 286 286 286 286 286 285 285 283 283 284 285 285 283 282 282 282 283 285 286 287 288 287 287 287 286 284 281 279 278 278 278 278 279 279 279 280 280 279 278 277 277
257 258 258 259 261 262 263 265 267 270 274 274 270 268 264 264 267 268 265 262 261 264 266 267 267 265 264 264 265 264 268 271 272 272 273 274 276 277 279 282 284 285 285 284 285 285 285 285 285 285 285 285 285 286 285 284 283 282 283 284 284 285 285 287 287 287 286 285 285 284 282 281 279 278 278 278 277 277 277 277 278 278 278 278 277
258 256 256 257 260 263 265 267 271 275 276 267 260 264 267 266 265 263 262 263 264 265 266 268 270 268 266 264 263 266 276 279 275 274 274 274 275 276 278 281 282 283 284 284 284 284 284 284 284 284 285 286 287 287 286 285 284 283 283 284 284 285 285 286 287 287 285 284 283 283 283 282 280 281 281 280 280 279 278 277 278 279 280 280 279
263 257 254 255 259 263 265 267 271 274 273 264 259 265 274 273 267 263 262 264 266 266 267 268 270 272 270 268 269 275 280 279 275 276 278 276 275 275 276 278 279 280 281 282 283 284 284 285 285 286 286 286 286 286 285 285 285 284 284 284 285 285 286 286 287 287 286 285 284 284 284 284 283 283 284 284 283 282 281 280 280 280 281 281 281
270 264 260 260 262 264 264 266 270 270 268 264 262 268 276 279 275 269 266 266 267 267 268 267 268 270 272 276 279 281 281 281 280 281 280 279 279 279 279 279 279 280 280 280 282 283 284 285 285 285 285 285 285 285 284 285 285 285 285 285 285 286 286 287 287 287 286 286 285 284 285 285 285 285 286 286 285 285 284 283 282 281 281 281 281
269 268 266 266 266 266 267 268 271 272 271 268 267 269 273 275 276 273 270 268 268 268 268 267 267 268 272 276 279 281 282 283 284 284 283 283 283 283 283 282 282 282 282 282 283 283 284 285 285 285 285 285 285 285 284 285 285 285 285 286 286 286 286 287 287 287 287 286 285 285 285 286 286 285 286 286 285 285 285 284 284 283 282 281 281
265 265 266 266 265 266 267 268 270 272 272 271 269 269 271 272 272 270 268 267 267 268 269 269 268 268 270 273 277 281 284 286 286 286 286 285 284 284 285 284 284 283 283 283 284 285 286 286 285 285 285 285 285 286 286 286 286 286 286 286 286 286 286 287 287 287 287 286 286 285 286 287 287 286 286 286 286 286 286 285 285 284 283 283 282
265 265 265 264 263 264 266 266 268 270 270 270 269 268 267 267 268 267 266 266 266 267 268 269 269 269 270 272 276 281 286 289 289 288 287 286 285 285 284 285 285 285 285 287 288 288 287 286 286 286 286 286 287 287 287 287 287 287 286 286 287 287 287 287 287 287 287 287 287 286 286 287 287 287 287 287 287 287 287 286 286 286 285 285 284
268 268 267 265 265 266 267 267 269 271 271 270 269 266 263 264 267 269 268 268 268 268 268 269 269 270 271 274 277 282 286 290 290 288 286 285 284 283 283 283 284 284 285 287 287 286 286 286 287 287 288 288 288 288 288 288 288 288 288 288 288 288 288 289 289 289 288 288 289 289 288 288 287 287 287 287 286 287 287 286 286 286 285 285 285
268 268 267 267 267 266 266 266 267 269 270 271 270 268 267 267 270 271 272 272 272 271 270 271 271 271 273 276 281 284 287 288 288 287 285 284 283 282 283 282 283 284 285 284 282 282 283 284 286 287 288 288 288 288 288 288 289 289 289 289 290 290 290 290 290 290 289 289 289 289 289 288 287 286 286 286 285 285 285 285 286 285 285 285 285
265 266 267 268 269 268 268 268 267 267 267 268 269 270 270 272 273 274 275 275 275 274 273 273 274 275 276 279 282 284 285 285 284 284 283 283 283 282 282 282 283 284 283 281 281 282 283 285 286 287 288 288 288 288 288 288 288 289 289 289 290 290 289 289 289 289 288 288 288 287 287 287 286 286 286 285 285 285 285 285 285 285 284 284 284
262 264 265 266 267 268 269 270 271 271 270 269 269 270 272 273 274 274 275 275 275 275 274 274 275 276 277 279 281 282 282 281 281 281 281 281 281 282 282 281 281 279 277 278 281 284 286 288 289 290 289 289 289 289 289 289 289 289 289 289 289 289 289 288 288 288 287 287 287 286 286 286 287 287 287 286 286 286 286 286 286 285 285 285 285
Height
5802 5803 5804 5804 5804 5804 5805 5805 5805 5806 5806 5807 5807 5807 5806 5807 5807 5806 5805 5805 5807 5808 5808 5807 5807 5808 5809 5809 5809 5809 5808 5810 5813 5814 5814 5815 5816 5817 5818 5819 5819 5820 5821 5822 5823 5824 5824 5825 5826 5827 5828 5828 5829 5830 5831 5831 5832 5833 5833 5834 5835 5835 5836 5836 5837 5837 5838 5839 5839 5839 5840 5840 5841 5842 5842 5843 5844 5844 5845 5845 5846 5846 5847 5847 5848
5801 5802 5802 5802 5802 5803 5803 5803 5804 5804 5805 5806 5806 5805 5804 5805 5804 5803 5802 5803 5805 5806 5806 5806 5806 5807 5808 5807 5807 5807 5807 5808 5811 5812 5812 5813 5814 5816 5817 5817 5818 5818 5819 5819 5820 5821 5822 5824 5825 5826 5826 5827 5828 5829 5830 5830 5831 5831 5832 5832 5833 5834 5835 5835 5836 5836 5837 5837 5838 5838 5839 5839 5839 5840 5840 5841 5842 5842 5843 5844 5844 5845 5845 5846 5846
5799 5800 5800 5800 5801 5802 5802 5802 5803 5803 5804 5805 5805 5803 5803 5803 5803 5803 5803 5803 5804 5804 5805 5805 5805 5806 5806 5805 5805 5805 5807 5808 5809 5809 5810 5811 5812 5814 5815 5815 5816 5817 5817 5817 5818 5819 5820 5822 5823 5824 5825 5826 5826 5827 5828 5829 5829 5830 5830 5831 5831 5832 5833 5834 5835 5835 5836 5836 5836 5837 5837 5838 5838 5838 5839 5840 5840 5841 5841 5842 5843 5843 5844 5844 5844
5798 5799 5799 5799 5800 5801 5801 5802 5802 5802 5803 5803 5803 5801 5801 5801 5802 5802 5803 5803 5803 5803 5804 5804 5804 5803 5803 5803 5803 5805 5806 5806 5807 5807 5808 5809 5810 5811 5812 5813 5813 5814 5815 5815 5816 5817 5818 5820 5821 5822 5823 5824 5825 5825 5826 5827 5827 5828 5828 5829 5830 5831 5832 5833 5833 5834 5835 5835 5835 5836 5836 5836 5837 5837 5838 5838 5839 5839 5840 5840 5841 5841 5842 5842 5843
5797 5798 5798 5798 5800 5800 5800 5800 5800 5800 5800 5801 5801 5800 5800 5800 5800 5801 5802 5802 5802 5802 5802 5802 5802 5801 5801 5802 5803 5805 5806 5804 5804 5805 5806 5807 5808 5809 5810 5810 5811 5811 5813 5814 5814 5815 5816 5817 5818 5819 5820 5821 5822 5823 5824 5825 5826 5826 5827 5828 5829 5829 5830 5831 5832 5832 5833 5833 5834 5834 5835 5835 5835 5836 5836 5836 5837 5838 5838 5839 5839 5840 5840 5841 5841
5796 5797 5797 5798 5798 5798 5798 5799 5799 5799 5799 5800 5800 5799 5799 5799 5799 5799 5800 5800 5800 5800 5800 5800 5800 5801 5802 5802 5803 5805 5805 5804 5803 5803 5805 5806 5806 5807 5807 5807 5808 5809 5810 5811 5812 5813 5813 5814 5815 5816 5817 5818 5819 5820 5821 5822 5823 5825 5825 5826 5827 5828 5828 5829 5829 5830 5831 5831 5832 5832 5833 5833 5834 5834 5834 5835 5835 5836 5836 5837 5837 5838 5838 5839 5840
5795 5795 5795 5796 5797 5796 5796 5797 5797 5797 5797 5797 5798 5797 5797 5797 5797 5797 5798 5799 5799 5799 5799 5799 5800 5801 5802 5802 5803 5804 5804 5803 5802 5802 5804 5804 5804 5805 5805 5805 5806 5807 5808 5809 5809 5810 5810 5811 5812 5812 5814 5815 5816 5817 5818 5819 5821 5822 5823 5824 5825 5825 5826 5827 5827 5828 5829 5829 5830 5830 5831 5831 5832 5832 5832 5833 5833 5834 5834 5835 5835 5836 5836 5837 5838
5793 5793 5793 5794 5795 5794 5794 5794 5795 5795 5794 5794 5795 5795 5795 5795 5795 5796 5797 5797 5798 5798 5798 5798 5799 5800 5801 5801 5801 5802 5803 5802 5801 5801 5803 5804 5803 5803 5804 5804 5804 5805 5806 5806 5806 5807 5807 5808 5808 5809 5810 5812 5813 5814 5815 5816 5818 5819 5820 5821 5822 5823 5824 5824 5825 5825 5826 5827 5828 5828 5829 5829 5829 5830 5830 5831 5831 5832 5832 5833 5833 5834 5835 5835 5836
5791 5791 5791 5791 5791 5791 5791 5792 5793 5793 5792 5792 5793 5793 5793 5794 5795 5795 5796 5796 5797 5797 5797 5798 5799 5799 5800 5800 5800 5802 5803 5802 5801 5800 5801 5802 5802 5802 5803 5803 5802 5802 5803 5803 5803 5804 5804 5805 5806 5807 5808 5808 5809 5810 5811 5813 5815 5816 5817 5818 5819 5820 5821 5821 5822 5822 5823 5824 5825 5826 5827 5827 5828 5828 5828 5829 5829 5830 5830 5831 5831 5832 5833 5833 5834
5790 5789 5789 5789 5789 5789 5790 5791 5791 5791 5791 5791 5792 5793 5793 5793 5794 5795 5795 5796 5797 5796 5796 5797 5798 5799 5800 5800 5800 5801 5802 5802 5800 5799 5800 5800 5800 5800 5799 5800 5800 5800 5800 5800 5801 5801 5802 5803 5804 5805 5805 5805 5805 5807 5808 5810 5811 5812 5813 5814 5815 5816 5817 5818 5819 5819 5820 5821 5822 5823 5824 5825 5825 5826 5826 5827 5827 5828 5828 5829 5829 5830 5830 5831 5831
5789 5789 5788 5789 5789 5789 5790 5790 5790 5790 5790 5791 5791 5792 5792 5792 5793 5794 5795 5795 5796 5796 5796 5796 5797 5798 5799 5799 5800 5801 5801 5801 5799 5798 5798 5798 5797 5797 5798 5798 5799 5799 5799 5799 5799 5800 5800 5801 5802 5802 5801 5801 5802 5804 5806 5807 5808 5809 5809 5810 5812 5813 5814 5815 5816 5817 5818 5819 5820 5820 5821 5822 5823 5823 5824 5825 5825 5825 5826 5827 5827 5827 5828 5828 5829
5788 5788 5788 5789 5789 5790 5790 5790 5789 5789 5789 5790 5790 5791 5791 5791 5792 5793 5794 5795 5796 5796 5796 5796 5797 5798 5799 5799 5800 5800 5800 5800 5798 5797 5797 5795 5793 5795 5797 5798 5799 5799 5798 5798 5798 5799 5799 5800 5800 5800 5799 5800 5801 5802 5803 5804 5805 5806 5807 5808 5809 5810 5812 5812 5813 5814 5815 5816 5817 5817 5818 5819 5820 5820 5821 5821 5822 5823 5823 5824 5824 5825 5825 5826 5826
5785 5786 5786 5787 5788 5789 5788 5788 5788 5788 5789 5789 5789 5790 5790 5790 5791 5792 5793 5794 5794 5795 5795 5796 5796 5797 5797 5798 5799 5799 5799 5798 5798 5796 5795 5794 5791 5792 5796 5798 5798 5798 5797 5797 5797 5798 5798 5798 5798 5799 5800 5800 5801 5801 5801 5802 5803 5804 5805 5806 5807 5808 5809 5810 5810 5811 5812 5813 5814 5814 5815 5816 5816 5817 5817 5818 5819 5820 5820 5821 5822 5822 5823 5823 5824
5784 5784 5785 5786 5786 5787 5787 5787 5787 5787 5787 5788 5788 5788 5789 5790 5790 5790 5791 5792 5793 5794 5795 5795 5795 5795 5796 5796 5797 5797 5797 5797 5796 5796 5794 5794 5791 5790 5793 5796 5797 5797 5797 5797 5796 5797 5797 5797 5797 5798 5799 5800 5800 5800 5800 5801 5802 5803 5804 5804 5805 5805 5806 5807 5807 5808 5809 5810 5811 5811 5812 5812 5813 5813 5814 5815 5816 5817 5818 5818 5819 5820 5820 5820 5821
5783 5783 5784 5784 5785 5785 5785 5786 5786 5785 5786 5786 5787 5787 5788 5789 5789 5789 5790 5790 5791 5792 5793 5794 5794 5794 5795 5795 5796 5796 5796 5795 5795 5794 5793 5792 5791 5790 5790 5792 5794 5795 5795 5795 5795 5796 5797 5796 5796 5797 5798 5799 5799 5799 5800 5801 5802 5802 5802 5803 5803 5803 5804 5804 5804 5805 5806 5806 5807 5808 5808 5809 5810 5811 5812 5813 5814 5814 5815 5816 5816 5817 5817 5818 5818
5782 5782 5783 5783 5783 5784 5784 5784 5785 5784 5784 5785 5785 5786 5787 5788 5788 5789 5789 5789 5789 5790 5790 5791 5793 5793 5794 5794 5795 5794 5794 5794 5793 5793 5792 5791 5791 5790 5789 5789 5791 5792 5793 5793 5794 5795 5796 5795 5796 5797 5797 5798 5799 5799 5800 5800 5800 5801 5801 5802 5802 5802 5802 5802 5802 5803 5803 5804 5804 5804 5805 5805 5807 5808 5808 5809 5810 5811 5812 5812 5813 5813 5814 5815 5815
5781 5781 5782 5782 5782 5782 5783 5783 5783 5783 5784 5784 5785 5785 5786 5787 5787 5788 5788 5788 5788 5788 5789 5789 5791 5792 5793 5793 5793 5793 5792 5792 5792 5791 5790 5789 5789 5789 5788 5788 5788 5789 5790 5792 5793 5794 5794 5794 5794 5795 5796 5797 5797 5797 5798 5799 5799 5800 5800 5800 5800 5800 5801 5801 5800 5800 5801 5801 5801 5801 5801 5802 5804 5804 5804 5805 5806 5807 5808 5808 5809 5810 5810 5811 5812
5780 5780 5781 5781 5781 5781 5781 5781 5782 5782 5783 5783 5784 5785 5785 5786 5786 5786 5787 5787 5786 5787 5787 5788 5789 5790 5790 5791 5791 5791 5790 5790 5790 5789 5788 5788 5788 5788 5788 5787 5787 5788 5789 5790 5792 5793 5793 5793 5793 5794 5795 5795 5795 5795 5796 5797 5798 5798 5799 5799 5799 5799 5799 5799 5799 5799 5799 5799 5798 5798 5799 5800 5801 5800 5800 5801 5802 5803 5803 5804 5805 5806 5806 5807 5808
5779 5779 5779 5780 5780 5780 5780 5780 5780 5781 5781 5782 5783 5784 5784 5784 5785 5785 5785 5785 5785 5785 5786 5786 5787 5787 5788 5788 5788 5788 5788 5788 5788 5787 5786 5786 5786 5786 5787 5786 5785 5786 5787 5788 5790 5792 5792 5791 5792 5792 5792 5793 5793 5794 5795 5796 5797 5797 5797 5797 5797 5797 5797 5797 5797 5797 5797 5796 5796 5796 5796 5797 5797 5796 5796 5798 5798 5799 5800 5801 5802 5802 5803 5803 5804
5778 5778 5778 5778 5778 5778 5779 5779 5779 5780 5780 5781 5781 5782 5782 5783 5783 5783 5784 5784 5784 5784 5784 5784 5785 5785 5785 5785 5786 5786 5787 5787 5786 5786 5786 5785 5784 5784 5784 5784 5783 5783 5785 5786 5788 5790 5790 5789 5789 5790 5790 5791 5791 5791 5792 5793 5794 5795 5795 5795 5795 5795 5795 5794 5794 5794 5794 5794 5794 5794 5794 5794 5793 5793 5794 5795 5795 5795 5796 5797 5798 5799 5799 5799 5799
5777 5777 5777 5777 5777 5777 5777 5777 5778 5778 5779 5779 5780 5780 5781 5781 5781 5782 5782 5782 5782 5782 5782 5783 5783 5783 5783 5784 5784 5785 5785 5785 5785 5785 5785 5784 5783 5783 5783 5782 5782 5781 5782 5784 5785 5787 5788 5788 5787 5788 5789 5789 5789 5789 5789 5790 5791 5792 5793 5793 5792 5792 5792 5791 5791 5791 5791 5792 5792 5792 5791 5791 5791 5791 5792 5792 5792 5792 5794 5794 5794 5794 5795 5795 5795
5776 5776 5775 5775 5775 5776 5776 5776 5777 5777 5778 5778 5779 5779 5779 5780 5780 5780 5780 5780 5780 5780 5780 5780 5781 5781 5782 5782 5782 5783 5783 5783 5783 5783 5783 5782 5782 5781 5781 5781 5780 5780 5781 5781 5783 5784 5786 5786 5786 5786 5787 5788 5787 5787 5787 5787 5788 5789 5789 5789 5789 5789 5789 5789 5788 5788 5789 5789 5789 5789 5789 5789 5789 5789 5789 5789 5789 5789 5790 5791 5791 5790 5791 5791 5791
5774 5774 5774 5774 5774 5775 5775 5776 5776 5776 5777 5777 5777 5778 5778 5778 5778 5778 5778 5778 5778 5778 5778 5778 5779 5779 5780 5780 5781 5781 5781 5782 5782 5781 5781 5781 5780 5780 5779 5779 5778 5778 5779 5779 5780 5781 5782 5783 5784 5784 5785 5786 5786 5786 5786 5785 5786 5786 5786 5786 5786 5786 5786 5786 5786 5786 5786 5786 5786 5786 5786 5786 5786 5786 5786 5786 5786 5787 5787 5788 5788 5787 5787 5787 5787
5773 5773 5774 5774 5774 5774 5774 5775 5775 5776 5776 5776 5776 5776 5776 5777 5777 5777 5777 5777 5777 5777 5777 5777 5778 5778 5778 5779 5779 5779 5780 5780 5780 5779 5779 5779 5779 5779 5778 5777 5777 5777 5777 5777 5777 5779 5779 5780 5781 5782 5782 5783 5783 5784 5784 5784 5783 5783 5783 5783 5783 5783 5783 5784 5784 5784 5784 5784 5784 5784 5784 5783 5783 5783 5783 5783 5783 5784 5785 5785 5785 5785 5784 5783 5783
5771 5772 5773 5773 5773 5773 5774 5774 5774 5775 5775 5775 5775 5775 5775 5775 5775 5775 5775 5775 5775 5775 5776 5776 5776 5776 5777 5777 5777 5778 5778 5778 5777 5777 5777 5777 5777 5777 5776 5776 5776 5775 5775 5774 5775 5776 5776 5777 5778 5778 5779 5779 5780 5780 5781 5781 5781 5781 5781 5781 5781 5781 5781 5781 5781 5781 5781 5781 5781 5781 5781 5781 5781 5780 5780 5780 5780 5781 5781 5782 5782 5782 5781 5780 5780
5770 5771 5772 5772 5772 5772 5772 5773 5773 5774 5774 5774 5774 5774 5774 5774 5774 5774 5774 5774 5774 5774 5774 5774 5774 5775 5775 5775 5775 5775 5776 5776 5776 5775 5775 5775 5774 5774 5774 5775 5774 5774 5773 5773 5773 5773 5774 5774 5775 5775 5776 5776 5777 5777 5778 5778 5779 5779 5779 5779 5779 5779 5779 5778 5778 5778 5778 5778 5778 5778 5778 5778 5778 5778 5778 5777 5777 5778 5778 5778 5778 5778 5777 5777 5776
5769 5770 5771 5771 5771 5771 5771 5771 5772 5772 5773 5773 5773 5773 5772 5772 5772 5772 5773 5773 5773 5773 5773 5773 5773 5773 5773 5773 5773 5773 5773 5773 5773 5773 5773 5773 5772 5772 5772 5772 5772 5772 5771 5771 5771 5771 5771 5772 5772 5772 5773 5773 5774 5774 5775 5776 5776 5776 5776 5776 5777 5777 5777 5776 5776 5776 5776 5775 5775 5775 5775 5775 5775 5775 5775 5775 5774 5774 5774 5774 5774 5774 5774 5773 5773
5767 5768 5769 5769 5769 5769 5769 5770 5770 5771 5771 5771 5771 5771 5771 5771 5771 5771 5771 5771 5771 5771 5771 5771 5771 5771 5771 5771 5771 5771 5771 5771 5771 5771 5771 5770 5770 5769 5769 5770 5770 5770 5770 5770 5770 5770 5770 5770 5770 5771 5771 5771 5772 5772 5773 5773 5773 5774 5774 5774 5774 5774 5774 5774 5774 5774 5774 5773 5773 5773 5773 5773 5773 5772 5772 5772 5772 5771 5771 5771 5771 5771 5771 5770 5770
5765 5766 5767 5767 5767 5767 5767 5768 5768 5769 5769 5769 5769 5770 5770 5769 5769 5769 5769 5769 5769 5769 5769 5769 5768 5768 5768 5768 5768 5768 5769 5769 5769 5769 5769 5769 5768 5767 5768 5768 5768 5768 5768 5768 5768 5768 5768 5768 5768 5769 5769 5770 5770 5770 5771 5771 5771 5771 5771 5771 5772 5772 5772 5772 5772 5772 5772 5771 5771 5771 5771 5770 5770 5770 5770 5770 5769 5769 5769 5768 5768 5768 5768 5768 5767
5763 5764 5764 5765 5765 5765 5765 5766 5766 5767 5767 5767 5767 5768 5768 5768 5768 5767 5767 5767 5767 5767 5767 5767 5766 5766 5766 5766 5766 5766 5766 5767 5767 5767 5767 5767 5766 5766 5766 5766 5767 5767 5766 5766 5766 5766 5766 5766 5767 5767 5767 5768 5768 5768 5769 5769 5769 5769 5769 5769 5770 5770 5770 5770 5770 5770 5769 5769 5769 5769 5769 5768 5768 5768 5767 5767 5767 5767 5766 5766 5766 5765 5765 5765 5765
5760 5761 5762 5762 5762 5763 5763 5763 5764 5764 5765 5765 5765 5766 5766 5766 5766 5765 5765 5765 5765 5765 5765 5765 5765 5765 5765 5765 5765 5765 5765 5765 5765 5765 5766 5766 5765 5765 5764 5764 5765 5766 5765 5765 5765 5765 5765 5765 5765 5765 5766 5766 5766 5766 5767 5767 5767 5767 5768 5768 5768 5768 5768 5768 5768 5768 5767 5767 5767 5767 5766 5766 5766 5766 5766 5765 5765 5765 5764 5764 5763 5763 5763 5763 5762
5757 5758 5759 5759 5759 5760 5760 5761 5761 5762 5762 5763 5763 5763 5763 5763 5763 5763 5763 5763 5763 5763 5763 5763 5763 5763 5763 5763 5764 5764 5764 5764 5764 5765 5765 5765 5764 5764 5764 5763 5763 5764 5764 5763 5763 5763 5763 5763 5764 5764 5764 5764 5764 5765 5765 5765 5765 5766 5766 5766 5766 5766 5766 5766 5766 5765 5765 5765 5765 5764 5764 5764 5764 5764 5763 5763 5763 5763 5762 5762 5761 5761 5761 5760 5760
5754 5755 5755 5756 5757 5757 5758 5758 5759 5759 5760 5760 5761 5761 5761 5761 5761 5761 5761 5761 5761 5761 5761 5761 5761 5762 5762 5762 5763 5763 5763 5763 5763 5763 5763 5763 5763 5763 5763 5762 5762 5762 5762 5762 5762 5762 5762 5762 5762 5762 5763 5763 5763 5763 5763 5763 5763 5764 5764 5764 5764 5764 5764 5763 5763 5763 5763 5763 5763 5763 5762 5762 5762 5761 5761 5761 5761 5760 5760 5760 5759 5759 5758 5758 5758
5751 5752 5752 5753 5754 5754 5755 5756 5756 5757 5757 5758 5758 5758 5758 5759 5759 5759 5759 5759 5759 5760 5760 5760 5760 5760 5761 5761 5761 5761 5762 5762 5762 5762 5762 5762 5762 5762 5761 5761 5761 5761 5761 5761 5760 5760 5760 5760 5760 5760 5761 5761 5761 5761 5761 5761 5761 5761 5762 5762 5762 5762 5762 5762 5761 5760 5760 5760 5760 5761 5760 5760 5759 5759 5759 5758 5758 5758 5758 5757 5757 5757 5756 5756 5755
5748 5749 5750 5750 5751 5752 5752 5753 5754 5754 5755 5755 5756 5756 5756 5756 5756 5756 5756 5757 5758 5758 5759 5759 5759 5759 5759 5759 5759 5760 5760 5760 5760 5760 5760 5760 5760 5760 5760 5760 5760 5759 5759 5759 5759 5759 5759 5759 5759 5759 5758 5759 5759 5759 5759 5759 5759 5759 5759 5759 5759 5759 5760 5760 5759 5759 5758 5757 5757 5758 5758 5757 5757 5756 5756 5756 5755 5755 5754 5754 5754 5754 5753 5753 5752
5745 5746 5747 5747 5748 5749 5749 5750 5751 5752 5753 5753 5753 5753 5753 5753 5753 5753 5753 5754 5755 5756 5756 5757 5757 5757 5757 5757 5757 5758 5758 5758 5758 5758 5758 5758 5758 5758 5758 5758 5758 5757 5757 5757 5757 5757 5757 5757 5757 5757 5757 5757 5757 5757 5757 5757 5756 5756 5757 5757 5757 5757 5757 5757 5757 5757 5757 5756 5755 5754 5754 5754 5754 5753 5753 5753 5752 5752 5751 5751 5751 5750 5750 5749 5749
5742 5743 5744 5744 5745 5746 5746 5748 5749 5749 5750 5750 5750 5751 5751 5751 5751 5751 5751 5752 5752 5753 5753 5754 5754 5754 5754 5754 5755 5755 5755 5755 5756 5755 5755 5756 5756 5756 5756 5756 5756 5755 5755 5755 5755 5754 5754 5754 5754 5755 5754 5754 5754 5754 5754 5754 5754 5754 5754 5755 5754 5754 5754 5754 5754 5754 5754 5753 5752 5751 5751 5751 5751 5750 5750 5749 5749 5749 5748 5747 5747 5746 5746 5745 5745
5738 5739 5740 5741 5742 5742 5743 5744 5746 5746 5747 5747 5747 5748 5747 5748 5749 5748 5748 5749 5749 5749 5749 5750 5751 5751 5751 5751 5751 5752 5752 5753 5753 5753 5753 5753 5753 5753 5754 5754 5754 5753 5752 5752 5752 5752 5752 5752 5752 5752 5752 5752 5751 5751 5751 5751 5751 5750 5751 5751 5751 5751 5750 5750 5750 5750 5750 5750 5749 5748 5747 5747 5747 5746 5746 5745 5745 5745 5744 5744 5743 5742 5742 5741 5740
5735 5736 5736 5737 5738 5738 5739 5741 5742 5743 5744 5744 5744 5744 5744 5745 5746 5746 5746 5746 5746 5746 5746 5747 5747 5747 5747 5748 5747 5747 5748 5749 5750 5750 5751 5751 5751 5751 5751 5751 5751 5751 5750 5750 5750 5749 5749 5749 5749 5749 5748 5749 5748 5748 5748 5748 5747 5747 5747 5747 5746 5746 5746 5746 5746 5746 5745 5745 5745 5745 5744 5743 5743 5742 5742 5741 5740 5740 5740 5739 5739 5738 5738 5737 5736
5731 5732 5733 5734 5734 5735 5736 5737 5739 5740 5741 5742 5742 5741 5741 5742 5742 5743 5743 5743 5744 5744 5745 5745 5745 5745 5745 5745 5744 5744 5745 5746 5746 5747 5748 5748 5748 5748 5748 5749 5749 5748 5748 5747 5747 5746 5746 5746 5745 5745 5745 5745 5745 5745 5744 5744 5744 5743 5743 5743 5742 5742 5742 5741 5741 5741 5741 5741 5740 5740 5740 5739 5739 5738 5737 5737 5736 5736 5735 5735 5734 5733 5733 5732 5731
5729 5730 5731 5731 5731 5732 5733 5735 5736 5736 5738 5740 5739 5737 5737 5738 5739 5739 5739 5740 5741 5742 5743 5743 5743 5743 5743 5742 5742 5742 5743 5743 5743 5744 5744 5744 5745 5745 5745 5745 5745 5745 5744 5744 5743 5743 5743 5742 5742 5741 5741 5740 5741 5741 5740 5740 5740 5739 5739 5739 5738 5738 5738 5737 5736 5736 5736 5736 5736 5735 5734 5734 5734 5733 5732 5732 5731 5731 5730 5730 5728 5727 5727 5726 5726
5726 5727 5728 5728 5729 5730 5731 5733 5733 5734 5736 5737 5735 5734 5734 5734 5735 5736 5736 5737 5739 5739 5740 5740 5740 5740 5740 5740 5740 5740 5740 5741 5741 5741 5741 5741 5741 5741 5741 5741 5741 5741 5741 5740 5740 5739 5739 5738 5738 5737 5737 5736 5736 5735 5735 5735 5734 5734 5734 5734 5733 5732 5732 5732 5731 5730 5730 5730 5730 5730 5728 5727 5728 5727 5726 5725 5725 5724 5724 5724 5723 5722 5721 5720 5719
5723 5724 5725 5725 5726 5728 5728 5729 5730 5731 5733 5733 5732 5731 5731 5731 5732 5733 5733 5734 5735 5736 5736 5737 5737 5737 5737 5737 5738 5737 5738 5738 5738 5738 5738 5738 5738 5738 5738 5738 5737 5737 5737 5736 5736 5735 5735 5734 5734 5733 5732 5732 5731 5730 5730 5729 5729 5728 5728 5728 5727 5727 5726 5726 5726 5725 5723 5723 5724 5724 5723 5721 5721 5721 5719 5718 5718 5717 5717 5717 5716 5715 5714 5713 5712
5721 5721 5722 5724 5725 5725 5726 5726 5726 5727 5728 5729 5729 5729 5729 5729 5729 5730 5730 5730 5731 5732 5733 5733 5734 5734 5734 5735 5735 5734 5734 5735 5735 5735 5735 5735 5735 5734 5734 5733 5733 5733 5732 5732 5731 5731 5730 5730 5729 5729 5728 5727 5727 5726 5724 5724 5723 5722 5722 5721 5721 5720 5720 5720 5720 5719 5717 5717 5717 5718 5717 5715 5714 5714 5713 5711 5711 5710 5709 5708 5708 5707 5707 5706 5705
5718 5719 5720 5721 5722 5723 5723 5723 5723 5723 5724 5725 5726 5726 5727 5727 5727 5727 5727 5727 5727 5728 5729 5730 5730 5730 5730 5731 5731 5730 5730 5730 5730 5730 5730 5731 5730 5730 5730 5729 5728 5728 5727 5727 5726 5726 5725 5725 5724 5724 5723 5721 5721 5721 5719 5718 5718 5717 5716 5715 5714 5714 5714 5713 5713 5712 5711 5710 5710 5711 5711 5709 5708 5708 5706 5705 5704 5703 5701 5700 5700 5699 5699 5698 5698
5715 5716 5717 5718 5719 5720 5720 5720 5719 5719 5719 5720 5721 5723 5724 5723 5723 5723 5723 5724 5724 5724 5725 5726 5726 5726 5725 5726 5726 5726 5725 5726 5726 5725 5725 5726 5726 5725 5725 5724 5723 5723 5722 5722 5721 5721 5720 5720 5719 5718 5717 5716 5715 5715 5714 5713 5712 5711 5710 5709 5708 5708 5707 5707 5706 5705 5704 5703 5703 5704 5705 5703 5700 5700 5700 5698 5697 5695 5694 5692 5691 5690 5690 5690 5689
5711 5712 5713 5714 5715 5716 5716 5716 5716 5715 5716 5716 5716 5718 5719 5718 5718 5718 5719 5720 5720 5720 5721 5721 5720 5720 5720 5721 5721 5720 5719 5720 5721 5721 5720 5720 5720 5720 5719 5718 5718 5717 5716 5716 5715 5715 5714 5714 5713 5712 5711 5710 5710 5709 5708 5707 5706 5705 5704 5703 5702 5702 5701 5701 5699 5698 5697 5695 5695 5696 5697 5695 5693 5693 5692 5690 5689 5688 5686 5684 5683 5682 5682 5681 5680
5706 5707 5708 5710 5712 5713 5712 5712 5712 5712 5712 5712 5712 5713 5713 5713 5713 5713 5714 5716 5716 5716 5717 5716 5714 5714 5715 5715 5715 5714 5713 5714 5715 5715 5714 5714 5714 5714 5713 5713 5712 5711 5711 5710 5709 5709 5708 5708 5707 5706 5705 5704 5703 5702 5702 5700 5699 5699 5698 5697 5696 5695 5695 5694 5693 5692 5690 5689 5689 5689 5689 5688 5686 5685 5685 5683 5682 5681 5679 5677 5676 5675 5674 5673 5672
5701 5701 5703 5704 5707 5709 5708 5708 5708 5708 5708 5707 5707 5707 5708 5708 5708 5708 5709 5711 5711 5712 5712 5711 5709 5710 5710 5709 5709 5708 5708 5708 5708 5708 5708 5708 5708 5708 5708 5707 5707 5706 5705 5705 5704 5704 5703 5702 5701 5700 5699 5698 5697 5696 5695 5694 5693 5693 5692 5691 5689 5688 5688 5687 5686 5685 5683 5682 5683 5682 5680 5680 5679 5677 5677 5676 5675 5673 5672 5670 5668 5667 5666 5665 5664
5696 5696 5696 5697 5699 5702 5702 5702 5702 5702 5702 5702 5702 5702 5702 5703 5702 5702 5703 5705 5705 5705 5707 5706 5704 5704 5704 5704 5704 5703 5702 5702 5702 5702 5702 5702 5702 5702 5702 5701 5701 5701 5699 5698 5698 5698 5697 5696 5696 5695 5694 5693 5692 5691 5690 5689 5688 5687 5686 5685 5683 5682 5681 5680 5680 5679 5677 5676 5676 5675 5673 5673 5671 5669 5669 5669 5668 5666 5664 5663 5662 5659 5658 5657 5656
5690 5690 5690 5691 5693 5695 5696 5695 5695 5695 5696 5696 5696 5697 5697 5696 5696 5696 5697 5699 5698 5698 5701 5702 5699 5698 5699 5699 5699 5698 5697 5696 5696 5696 5696 5696 5696 5696 5695 5695 5695 5695 5695 5693 5692 5692 5691 5690 5690 5689 5688 5687 5685 5684 5683 5682 5681 5681 5680 5678 5676 5675 5675 5674 5673 5672 5670 5669 5669 5668 5666 5665 5664 5661 5660 5660 5660 5659 5657 5655 5654 5652 5651 5650 5649